AAL202 KSJC-KSGU

Flight info

Callsign AAL202
Flight time 1h 18m
Altitude 35000
Route SPTNS1 TECKY NTELL KROST ILC GHABY
Aircraft A319/M-SDE3FGHIRWY/LB1

Departure

Time 2026-04-25 17:12
Airport Norman Y. Mineta San Jose International Airport (KSJC)

Arrival

Time 2026-04-25 18:31
Airport St George Regional Airport (KSGU)
Time Latitude Longitude Altitude Speed Heading
2026-04-25 16:55 37.37060 -121.93187 39 ft 0 kts 54°
2026-04-25 17:03 37.37051 -121.93204 39 ft 2 kts 54°
2026-04-25 17:03 37.37042 -121.93219 40 ft 2 kts 61°
2026-04-25 17:03 37.37040 -121.93237 40 ft 2 kts 106°
2026-04-25 17:03 37.37045 -121.93250 39 ft 0 kts 134°
2026-04-25 17:04 37.37051 -121.93256 39 ft 1 kts 138°
2026-04-25 17:06 37.37024 -121.93233 40 ft 6 kts 146°
2026-04-25 17:06 37.36967 -121.93176 41 ft 10 kts 139°
2026-04-25 17:06 37.36910 -121.93115 42 ft 10 kts 139°
2026-04-25 17:06 37.36845 -121.93043 43 ft 20 kts 139°
2026-04-25 17:07 37.36723 -121.92909 46 ft 21 kts 139°
2026-04-25 17:07 37.36621 -121.92798 47 ft 16 kts 139°
2026-04-25 17:07 37.36531 -121.92702 47 ft 17 kts 140°
2026-04-25 17:07 37.36442 -121.92606 48 ft 16 kts 139°
2026-04-25 17:08 37.36319 -121.92467 50 ft 28 kts 139°
2026-04-25 17:08 37.36176 -121.92310 53 ft 26 kts 139°
2026-04-25 17:08 37.36037 -121.92159 54 ft 28 kts 140°
2026-04-25 17:08 37.35897 -121.92003 56 ft 22 kts 139°
2026-04-25 17:09 37.35805 -121.91929 57 ft 8 kts 189°
2026-04-25 17:09 37.35750 -121.91981 58 ft 10 kts 230°
2026-04-25 17:09 37.35730 -121.92054 59 ft 9 kts 291°
2026-04-25 17:09 37.35774 -121.92124 58 ft 11 kts 317°
2026-04-25 17:10 37.35797 -121.92149 58 ft 0 kts 319°
2026-04-25 17:12 37.35899 -121.92262 57 ft 58 kts 317°
2026-04-25 17:12 37.36422 -121.92842 51 ft 138 kts 320°
2026-04-25 17:12 37.37279 -121.93771 321 ft 175 kts 318°
2026-04-25 17:12 37.38178 -121.94732 1232 ft 171 kts 317°
2026-04-25 17:13 37.39063 -121.95693 2064 ft 172 kts 316°
2026-04-25 17:13 37.39359 -121.96018 2255 ft 172 kts 316°
2026-04-25 17:13 37.41129 -121.97391 2721 ft 197 kts 350°
2026-04-25 17:13 37.42514 -121.97076 2983 ft 213 kts 27°
2026-04-25 17:14 37.43556 -121.95694 3240 ft 228 kts 66°
2026-04-25 17:14 37.43710 -121.93678 3451 ft 245 kts 107°
2026-04-25 17:14 37.42814 -121.91801 3808 ft 257 kts 134°
2026-04-25 17:14 37.41533 -121.90164 4324 ft 267 kts 137°
2026-04-25 17:15 37.40213 -121.88538 5033 ft 269 kts 136°
2026-04-25 17:15 37.38895 -121.86864 5778 ft 270 kts 135°
2026-04-25 17:15 37.37590 -121.85156 6497 ft 272 kts 134°
2026-04-25 17:15 37.36284 -121.83421 7209 ft 274 kts 134°
2026-04-25 17:16 37.34972 -121.81664 7882 ft 276 kts 134°
2026-04-25 17:16 37.33652 -121.79890 8531 ft 279 kts 134°
2026-04-25 17:16 37.32285 -121.78153 9164 ft 282 kts 137°
2026-04-25 17:16 37.30840 -121.76498 9778 ft 284 kts 138°
2026-04-25 17:17 37.29359 -121.74822 10348 ft 289 kts 138°
2026-04-25 17:17 37.27819 -121.73081 10646 ft 303 kts 137°
2026-04-25 17:17 37.26226 -121.71278 10915 ft 318 kts 137°
2026-04-25 17:17 37.24544 -121.69373 11186 ft 332 kts 137°
2026-04-25 17:18 37.22787 -121.67382 11633 ft 339 kts 137°
2026-04-25 17:18 37.21032 -121.65396 12214 ft 342 kts 137°
2026-04-25 17:18 37.19275 -121.63406 12786 ft 344 kts 137°
2026-04-25 17:18 37.17474 -121.61369 13337 ft 347 kts 137°
2026-04-25 17:19 37.15681 -121.59342 13862 ft 351 kts 136°
2026-04-25 17:19 37.13851 -121.57275 14399 ft 354 kts 136°
2026-04-25 17:19 37.12018 -121.55205 14926 ft 356 kts 137°
2026-04-25 17:19 37.10165 -121.53114 15441 ft 359 kts 137°
2026-04-25 17:20 37.08295 -121.50970 15941 ft 361 kts 134°
2026-04-25 17:20 37.06818 -121.48407 16417 ft 363 kts 116°
2026-04-25 17:20 37.06039 -121.45416 16909 ft 366 kts 100°
2026-04-25 17:20 37.05707 -121.42250 17377 ft 369 kts 97°
2026-04-25 17:21 37.05414 -121.39003 17792 ft 373 kts 97°
2026-04-25 17:21 37.05119 -121.35741 18229 ft 376 kts 97°
2026-04-25 17:21 37.04810 -121.32414 18662 ft 380 kts 98°
2026-04-25 17:21 37.04497 -121.29114 19054 ft 383 kts 98°
2026-04-25 17:22 37.04179 -121.25809 19412 ft 388 kts 98°
2026-04-25 17:22 37.04071 -121.24699 19527 ft 389 kts 98°
2026-04-25 17:22 37.03515 -121.19021 20140 ft 396 kts 98°
2026-04-25 17:22 37.03177 -121.15582 20494 ft 399 kts 99°
2026-04-25 17:23 37.02836 -121.12134 20856 ft 402 kts 99°
2026-04-25 17:23 37.02489 -121.08633 21218 ft 405 kts 99°
2026-04-25 17:23 37.02140 -121.05135 21427 ft 413 kts 99°
2026-04-25 17:23 37.01779 -121.01540 21640 ft 419 kts 99°
2026-04-25 17:24 37.01414 -120.97899 21974 ft 422 kts 99°
2026-04-25 17:24 37.01043 -120.94208 22323 ft 425 kts 99°
2026-04-25 17:24 37.00677 -120.90576 22651 ft 427 kts 99°
2026-04-25 17:24 37.00300 -120.86840 22957 ft 431 kts 99°
2026-04-25 17:25 36.99923 -120.83131 23258 ft 434 kts 100°
2026-04-25 17:25 36.99536 -120.79328 23592 ft 436 kts 100°
2026-04-25 17:25 36.99141 -120.75465 23923 ft 439 kts 100°
2026-04-25 17:25 36.98745 -120.71602 24242 ft 441 kts 100°
2026-04-25 17:26 36.98351 -120.67793 24536 ft 444 kts 100°
2026-04-25 17:26 36.97951 -120.63930 24821 ft 447 kts 100°
2026-04-25 17:26 36.97542 -120.59980 25127 ft 449 kts 100°
2026-04-25 17:26 36.97128 -120.55988 25425 ft 451 kts 100°
2026-04-25 17:27 36.96717 -120.52050 25702 ft 454 kts 100°
2026-04-25 17:27 36.96299 -120.48054 25982 ft 456 kts 100°
2026-04-25 17:27 36.95878 -120.44045 26257 ft 459 kts 101°
2026-04-25 17:27 36.95736 -120.42703 26343 ft 460 kts 101°
2026-04-25 17:28 36.95031 -120.36022 26764 ft 464 kts 101°
2026-04-25 17:28 36.94592 -120.31888 27044 ft 466 kts 102°
2026-04-25 17:28 36.94170 -120.27904 27297 ft 467 kts 101°
2026-04-25 17:28 36.93742 -120.23883 27539 ft 469 kts 101°
2026-04-25 17:29 36.93312 -120.19852 27765 ft 471 kts 102°
2026-04-25 17:29 36.92877 -120.15797 27987 ft 473 kts 101°
2026-04-25 17:29 36.92432 -120.11651 28202 ft 476 kts 102°
2026-04-25 17:29 36.91984 -120.07488 28423 ft 478 kts 101°
2026-04-25 17:30 36.91527 -120.03260 28676 ft 479 kts 101°
2026-04-25 17:30 36.91072 -119.99075 28911 ft 481 kts 102°
2026-04-25 17:30 36.90661 -119.94864 29140 ft 484 kts 97°
2026-04-25 17:30 36.90730 -119.90597 29431 ft 488 kts 86°
2026-04-25 17:31 36.91413 -119.86372 29751 ft 491 kts 75°
2026-04-25 17:31 36.92706 -119.82322 30046 ft 493 kts 64°
2026-04-25 17:31 36.94358 -119.78444 30353 ft 492 kts 62°
2026-04-25 17:31 36.96063 -119.74629 30639 ft 492 kts 61°
2026-04-25 17:32 36.97768 -119.70818 30897 ft 492 kts 62°
2026-04-25 17:32 36.99447 -119.67032 31153 ft 492 kts 62°
2026-04-25 17:32 37.01115 -119.63233 31418 ft 491 kts 62°
2026-04-25 17:32 37.02771 -119.59436 31683 ft 491 kts 62°
2026-04-25 17:33 37.04408 -119.55662 31898 ft 492 kts 62°
2026-04-25 17:33 37.06025 -119.51920 32117 ft 492 kts 62°
2026-04-25 17:33 37.07652 -119.48149 32367 ft 491 kts 62°
2026-04-25 17:33 37.09271 -119.44392 32610 ft 491 kts 62°
2026-04-25 17:34 37.10896 -119.40618 32826 ft 491 kts 62°
2026-04-25 17:34 37.12532 -119.36810 33035 ft 492 kts 62°
2026-04-25 17:34 37.14165 -119.33008 33216 ft 493 kts 63°
2026-04-25 17:34 37.15788 -119.29221 33383 ft 493 kts 63°
2026-04-25 17:35 37.17409 -119.25431 33546 ft 494 kts 63°
2026-04-25 17:35 37.19042 -119.21616 33696 ft 495 kts 63°
2026-04-25 17:35 37.20689 -119.17760 33851 ft 496 kts 63°
2026-04-25 17:35 37.22308 -119.13963 33991 ft 497 kts 63°
2026-04-25 17:36 37.23963 -119.10082 34106 ft 499 kts 62°
2026-04-25 17:36 37.25613 -119.06203 34214 ft 501 kts 62°
2026-04-25 17:36 37.27285 -119.02269 34347 ft 502 kts 62°
2026-04-25 17:36 37.28936 -118.98384 34471 ft 502 kts 62°
2026-04-25 17:37 37.30578 -118.94509 34592 ft 503 kts 62°
2026-04-25 17:37 37.32215 -118.90646 34721 ft 503 kts 62°
2026-04-25 17:37 37.33874 -118.86727 34846 ft 504 kts 62°
2026-04-25 17:37 37.35529 -118.82815 34890 ft 505 kts 62°
2026-04-25 17:38 37.37737 -118.77583 34897 ft 506 kts 62°
2026-04-25 17:38 37.42136 -118.67130 34901 ft 507 kts 62°
2026-04-25 17:39 37.45451 -118.59238 34925 ft 507 kts 62°
2026-04-25 17:39 37.48739 -118.51381 34929 ft 507 kts 62°
2026-04-25 17:40 37.52047 -118.43460 34921 ft 507 kts 62°
2026-04-25 17:40 37.55363 -118.35506 34920 ft 507 kts 62°
2026-04-25 17:41 37.58677 -118.27530 34905 ft 507 kts 62°
2026-04-25 17:41 37.61992 -118.19537 34904 ft 507 kts 63°
2026-04-25 17:42 37.65271 -118.11601 34900 ft 507 kts 63°
2026-04-25 17:42 37.68540 -118.03678 34909 ft 508 kts 63°
2026-04-25 17:43 37.71812 -117.95728 34901 ft 508 kts 63°
2026-04-25 17:43 37.75082 -117.87765 34893 ft 508 kts 63°
2026-04-25 17:44 37.78357 -117.79766 34906 ft 507 kts 63°
2026-04-25 17:44 37.81625 -117.71761 34901 ft 507 kts 63°
2026-04-25 17:45 37.83812 -117.66389 34906 ft 507 kts 63°
2026-04-25 17:45 37.88123 -117.55781 34897 ft 507 kts 63°
2026-04-25 17:46 37.91390 -117.47723 34903 ft 507 kts 63°
2026-04-25 17:46 37.94655 -117.39646 34910 ft 507 kts 63°
2026-04-25 17:47 37.97897 -117.31606 34911 ft 508 kts 63°
2026-04-25 17:47 38.01115 -117.23606 34906 ft 508 kts 63°
2026-04-25 17:48 38.05938 -117.11568 34883 ft 508 kts 63°
2026-04-25 17:49 38.09159 -117.03507 34873 ft 507 kts 63°
2026-04-25 17:49 38.12387 -116.95405 34883 ft 507 kts 63°
2026-04-25 17:50 38.15577 -116.87380 34905 ft 507 kts 63°
2026-04-25 17:50 38.18777 -116.79308 34902 ft 508 kts 63°
2026-04-25 17:51 38.21984 -116.71204 34906 ft 508 kts 63°
2026-04-25 17:51 38.25190 -116.63072 34906 ft 508 kts 63°
2026-04-25 17:52 38.28340 -116.55064 34910 ft 508 kts 63°
2026-04-25 17:52 38.31512 -116.46981 34909 ft 508 kts 63°
2026-04-25 17:53 38.34693 -116.38851 34912 ft 508 kts 63°
2026-04-25 17:53 38.37870 -116.30707 34911 ft 509 kts 64°
2026-04-25 17:54 38.40316 -116.22222 34912 ft 507 kts 78°
2026-04-25 17:54 38.41280 -116.13351 34916 ft 502 kts 92°
2026-04-25 17:55 38.40845 -116.04485 34926 ft 498 kts 101°
2026-04-25 17:55 38.40011 -115.95847 34931 ft 498 kts 101°
2026-04-25 17:56 38.39176 -115.87011 34752 ft 499 kts 101°
2026-04-25 17:56 38.38768 -115.82563 34455 ft 496 kts 101°
2026-04-25 17:56 38.38372 -115.78178 34095 ft 492 kts 101°
2026-04-25 17:56 38.37860 -115.73806 33701 ft 484 kts 108°
2026-04-25 17:57 38.36799 -115.69671 33328 ft 476 kts 119°
2026-04-25 17:57 38.35272 -115.65969 33027 ft 467 kts 129°
2026-04-25 17:57 38.33295 -115.62600 32739 ft 461 kts 138°
2026-04-25 17:58 38.28609 -115.57114 32179 ft 454 kts 147°
2026-04-25 17:58 38.26136 -115.54472 31898 ft 455 kts 147°
2026-04-25 17:58 38.23657 -115.51815 31610 ft 456 kts 146°
2026-04-25 17:58 38.21189 -115.49152 31324 ft 457 kts 146°
2026-04-25 17:59 38.18693 -115.46445 31038 ft 457 kts 146°
2026-04-25 17:59 38.16203 -115.43732 30754 ft 458 kts 146°
2026-04-25 17:59 38.13692 -115.40994 30467 ft 459 kts 145°
2026-04-25 17:59 38.11233 -115.38310 30193 ft 460 kts 146°
2026-04-25 18:00 38.08720 -115.35571 29916 ft 461 kts 145°
2026-04-25 18:00 38.06210 -115.32835 29644 ft 461 kts 146°
2026-04-25 18:00 38.03667 -115.30066 29367 ft 462 kts 146°
2026-04-25 18:00 38.01167 -115.27346 29096 ft 462 kts 146°
2026-04-25 18:01 37.98709 -115.24671 28833 ft 463 kts 146°
2026-04-25 18:01 37.96178 -115.21921 28560 ft 462 kts 146°
2026-04-25 18:01 37.93643 -115.19165 28287 ft 460 kts 145°
2026-04-25 18:01 37.91130 -115.16434 28015 ft 458 kts 145°
2026-04-25 18:02 37.88664 -115.13758 27746 ft 456 kts 145°
2026-04-25 18:02 37.86160 -115.11043 27473 ft 455 kts 146°
2026-04-25 18:02 37.83718 -115.08343 27197 ft 456 kts 141°
2026-04-25 18:02 37.81706 -115.04993 26905 ft 468 kts 123°
2026-04-25 18:03 37.80631 -115.00954 26635 ft 478 kts 102°
2026-04-25 18:03 37.80480 -114.96596 26385 ft 482 kts 92°
2026-04-25 18:03 37.80511 -114.92198 26111 ft 480 kts 92°
2026-04-25 18:03 37.80544 -114.87919 25847 ft 478 kts 92°
2026-04-25 18:04 37.80564 -114.83588 25576 ft 476 kts 92°
2026-04-25 18:04 37.80569 -114.79327 25310 ft 475 kts 92°
2026-04-25 18:04 37.80562 -114.74986 25039 ft 473 kts 92°
2026-04-25 18:04 37.80550 -114.70697 24768 ft 471 kts 92°
2026-04-25 18:05 37.80533 -114.66417 24456 ft 466 kts 92°
2026-04-25 18:05 37.80515 -114.62207 24078 ft 457 kts 92°
2026-04-25 18:05 37.80495 -114.58140 23712 ft 450 kts 92°
2026-04-25 18:05 37.80474 -114.54095 23350 ft 442 kts 92°
2026-04-25 18:06 37.80451 -114.50137 23004 ft 435 kts 92°
2026-04-25 18:06 37.80427 -114.46242 22672 ft 428 kts 92°
2026-04-25 18:06 37.80401 -114.42381 22342 ft 421 kts 92°
2026-04-25 18:06 37.80376 -114.38645 22020 ft 415 kts 92°
2026-04-25 18:07 37.80348 -114.34849 21692 ft 408 kts 93°
2026-04-25 18:07 37.80322 -114.31214 21371 ft 402 kts 93°
2026-04-25 18:07 37.80293 -114.27613 21053 ft 396 kts 92°
2026-04-25 18:07 37.80264 -114.24055 20734 ft 390 kts 92°
2026-04-25 18:08 37.80235 -114.20468 20404 ft 384 kts 92°
2026-04-25 18:08 37.80206 -114.17063 20090 ft 378 kts 92°
2026-04-25 18:08 37.80175 -114.13629 19770 ft 373 kts 92°
2026-04-25 18:08 37.80145 -114.10271 19454 ft 368 kts 92°
2026-04-25 18:09 37.80113 -114.06991 19149 ft 362 kts 92°
2026-04-25 18:09 37.80082 -114.03777 18880 ft 357 kts 92°
2026-04-25 18:09 37.80050 -114.00606 18683 ft 354 kts 92°
2026-04-25 18:09 37.80039 -113.99527 18616 ft 354 kts 92°
2026-04-25 18:10 37.79984 -113.94218 18304 ft 351 kts 92°
2026-04-25 18:10 37.79949 -113.91064 18118 ft 349 kts 92°
2026-04-25 18:10 37.79914 -113.87946 17928 ft 348 kts 92°
2026-04-25 18:10 37.79880 -113.84900 17734 ft 346 kts 92°
2026-04-25 18:11 37.79845 -113.81767 17544 ft 345 kts 92°
2026-04-25 18:11 37.79809 -113.78657 17323 ft 340 kts 92°
2026-04-25 18:11 37.79773 -113.75680 17045 ft 335 kts 92°
2026-04-25 18:11 37.79737 -113.72675 16758 ft 331 kts 92°
2026-04-25 18:12 37.79700 -113.69775 16483 ft 326 kts 92°
2026-04-25 18:12 37.79664 -113.66886 16207 ft 321 kts 92°
2026-04-25 18:12 37.79628 -113.64052 15999 ft 314 kts 92°
2026-04-25 18:12 37.79591 -113.61279 15985 ft 306 kts 92°
2026-04-25 18:13 37.79553 -113.58558 15983 ft 307 kts 92°
2026-04-25 18:13 37.79514 -113.55816 15983 ft 307 kts 92°
2026-04-25 18:13 37.79475 -113.53066 15984 ft 307 kts 93°
2026-04-25 18:14 37.79396 -113.47616 15986 ft 307 kts 92°
2026-04-25 18:14 37.79355 -113.44866 15985 ft 307 kts 92°
2026-04-25 18:14 37.79314 -113.42120 15986 ft 307 kts 92°
2026-04-25 18:14 37.79272 -113.39394 15986 ft 307 kts 92°
2026-04-25 18:15 37.79232 -113.36702 15990 ft 307 kts 93°
2026-04-25 18:15 37.79189 -113.33967 15994 ft 307 kts 93°
2026-04-25 18:15 37.79146 -113.31220 15990 ft 307 kts 94°
2026-04-25 18:15 37.79102 -113.28480 15997 ft 307 kts 94°
2026-04-25 18:16 37.79057 -113.25781 15991 ft 307 kts 94°
2026-04-25 18:16 37.79011 -113.23035 15988 ft 307 kts 94°
2026-04-25 18:16 37.78764 -113.17615 15978 ft 304 kts 107°
2026-04-25 18:17 37.77999 -113.15138 15970 ft 296 kts 124°
2026-04-25 18:17 37.76790 -113.13127 15969 ft 277 kts 140°
2026-04-25 18:17 37.75295 -113.11655 15948 ft 264 kts 155°
2026-04-25 18:17 37.73589 -113.10712 15964 ft 260 kts 168°
2026-04-25 18:18 37.71793 -113.10327 16031 ft 255 kts 181°
2026-04-25 18:18 37.69964 -113.10487 16030 ft 253 kts 193°
2026-04-25 18:18 37.68258 -113.11079 15900 ft 252 kts 200°
2026-04-25 18:18 37.66569 -113.11771 15887 ft 250 kts 201°
2026-04-25 18:19 37.64864 -113.12480 15923 ft 251 kts 201°
2026-04-25 18:19 37.63168 -113.13179 15936 ft 251 kts 200°
2026-04-25 18:19 37.61484 -113.13868 15950 ft 251 kts 200°
2026-04-25 18:19 37.59783 -113.14561 15962 ft 251 kts 200°
2026-04-25 18:20 37.58072 -113.15260 15680 ft 254 kts 200°
2026-04-25 18:20 37.56370 -113.15953 15410 ft 250 kts 200°
2026-04-25 18:20 37.54682 -113.16641 15098 ft 247 kts 200°
2026-04-25 18:20 37.53032 -113.17313 14761 ft 246 kts 199°
2026-04-25 18:21 37.51359 -113.17992 14438 ft 244 kts 199°
2026-04-25 18:21 37.49703 -113.18666 14106 ft 243 kts 199°
2026-04-25 18:21 37.48093 -113.19373 13777 ft 241 kts 202°
2026-04-25 18:21 37.46547 -113.20242 13443 ft 240 kts 207°
2026-04-25 18:22 37.45054 -113.21272 13086 ft 240 kts 210°
2026-04-25 18:22 37.44571 -113.21624 12972 ft 239 kts 210°
2026-04-25 18:22 37.42128 -113.23410 12419 ft 237 kts 210°
2026-04-25 18:22 37.40678 -113.24472 12083 ft 237 kts 210°
2026-04-25 18:23 37.39257 -113.25513 11765 ft 236 kts 210°
2026-04-25 18:23 37.37825 -113.26562 11445 ft 235 kts 210°
2026-04-25 18:23 37.36398 -113.27606 11138 ft 234 kts 210°
2026-04-25 18:23 37.34974 -113.28649 10836 ft 232 kts 210°
2026-04-25 18:24 37.33578 -113.29669 10540 ft 231 kts 210°
2026-04-25 18:24 37.32177 -113.30694 10232 ft 230 kts 210°
2026-04-25 18:24 37.30774 -113.31718 9920 ft 230 kts 210°
2026-04-25 18:24 37.29374 -113.32742 9655 ft 227 kts 210°
2026-04-25 18:25 37.27990 -113.33752 9448 ft 220 kts 210°
2026-04-25 18:25 37.26678 -113.34709 9289 ft 209 kts 210°
2026-04-25 18:25 37.25412 -113.35632 8980 ft 205 kts 210°
2026-04-25 18:25 37.24171 -113.36536 8664 ft 201 kts 210°
2026-04-25 18:26 37.22945 -113.37429 8352 ft 197 kts 210°
2026-04-25 18:26 37.21771 -113.38283 8047 ft 193 kts 210°
2026-04-25 18:26 37.20604 -113.39133 7741 ft 189 kts 210°
2026-04-25 18:26 37.19456 -113.39969 7435 ft 185 kts 210°
2026-04-25 18:27 37.18338 -113.40781 7130 ft 182 kts 210°
2026-04-25 18:27 37.17242 -113.41575 6820 ft 178 kts 210°
2026-04-25 18:27 37.16166 -113.42353 6552 ft 167 kts 210°
2026-04-25 18:27 37.15163 -113.43079 6146 ft 161 kts 210°
2026-04-25 18:28 37.14205 -113.43772 5711 ft 158 kts 210°
2026-04-25 18:28 37.13250 -113.44463 5278 ft 154 kts 210°
2026-04-25 18:28 37.12319 -113.45136 4857 ft 153 kts 210°
2026-04-25 18:29 37.10457 -113.46512 4202 ft 156 kts 212°
2026-04-25 18:29 37.09547 -113.47224 3980 ft 157 kts 213°
2026-04-25 18:30 37.06725 -113.49410 3179 ft 158 kts 204°
2026-04-25 18:30 37.05688 -113.49948 3088 ft 158 kts 204°
2026-04-25 18:30 37.04664 -113.50501 2909 ft 157 kts 199°
2026-04-25 18:30 37.03754 -113.50972 2887 ft 101 kts 199°
2026-04-25 18:31 37.03273 -113.51225 2871 ft 49 kts 202°
2026-04-25 18:31 37.03135 -113.51169 2863 ft 17 kts 115°
2026-04-25 18:31 37.03118 -113.51118 2861 ft 6 kts 113°
2026-04-25 18:31 37.03084 -113.51066 2859 ft 9 kts 144°
2026-04-25 18:32 37.03062 -113.51044 2858 ft 3 kts 135°
2026-04-25 18:32 37.03038 -113.51013 2857 ft 2 kts 141°
2026-04-25 18:32 37.03033 -113.51006 2856 ft 0 kts 122°